| time (UTC) | temp F | wind direction | speed MPH | gust MPH | rain 1hr in | rain 24hr in | rain mn in | humidity % | barometer mb |
| 20260507043025 | 73 | 360 | 1.0 | 8.0 | 0.00 | 0.00 | 0.00 | 23 | 1015.8 |
| 20260507041525 | 74 | 360 | 3.0 | 8.0 | 0.00 | 0.00 | 0.00 | 23 | 1015.7 |
| 20260507040023 | 74 | 360 | 2.0 | 6.0 | 0.00 | 0.00 | 0.00 | 23 | 1015.5 |
| 20260507034523 | 75 | 360 | 2.0 | 5.0 | 0.00 | 0.00 | 0.00 | 24 | 1015.3 |
| 20260507033023 | 76 | 360 | 3.0 | 5.0 | 0.00 | 0.00 | 0.00 | 23 | 1015.2 |
| 20260507031523 | 77 | 360 | 2.0 | 4.0 | 0.00 | 0.00 | 0.00 | 23 | 1015.1 |
| 20260507030022 | 78 | 360 | 1.0 | 4.0 | 0.00 | 0.00 | 0.00 | 23 | 1014.8 |
| 20260507024521 | 78 | 360 | 1.0 | 3.0 | 0.00 | 0.00 | 0.00 | 25 | 1014.7 |
| 20260507023021 | 80 | 360 | 1.0 | 3.0 | 0.00 | 0.00 | 0.00 | 21 | 1014.5 |
| 20260507021528 | 80 | 360 | 1.0 | 4.0 | 0.00 | 0.00 | 0.00 | 20 | 1014.4 |
| 20260507020019 | 81 | 360 | 2.0 | 4.0 | 0.00 | 0.00 | 0.00 | 20 | 1014.3 |
| 20260507014521 | 82 | 360 | 1.0 | 4.0 | 0.00 | 0.00 | 0.00 | 20 | 1014.3 |
| 20260507013022 | 82 | 360 | 2.0 | 6.0 | 0.00 | 0.00 | 0.00 | 19 | 1014.3 |
| 20260507011522 | 82 | 360 | 3.0 | 9.0 | 0.00 | 0.00 | 0.00 | 19 | 1014.3 |
| 20260507010024 | 82 | 360 | 5.0 | 9.0 | 0.00 | 0.00 | 0.00 | 19 | 1014.3 |
| 20260507004517 | 83 | 242 | 4.0 | 8.0 | 0.00 | 0.00 | 0.00 | 19 | 1014.3 |
| 20260507003016 | 83 | 324 | 4.0 | 8.0 | 0.00 | 0.00 | 0.00 | 19 | 1014.2 |
| 20260507001517 | 83 | 151 | 5.0 | 11.0 | 0.00 | 0.00 | 0.00 | 20 | 1014.1 |
| 20260507000022 | 83 | 25 | 1.0 | 6.0 | 0.00 | 0.00 | 0.00 | 19 | 1014.3 |
| 20260506234514 | 82 | 348 | 0.0 | 10.0 | 0.00 | 0.00 | 0.00 | 19 | 1014.3 |
| 20260506233013 | 82 | 325 | 0.0 | 7.0 | 0.00 | 0.00 | 0.00 | 20 | 1014.5 |
| 20260506231513 | 83 | 32 | 2.0 | 8.0 | 0.00 | 0.00 | 0.00 | 19 | 1014.6 |
| 20260506230009 | 83 | 360 | 4.0 | 6.0 | 0.00 | 0.00 | 0.00 | 20 | 1014.8 |
| 20260506224508 | 83 | 360 | 3.0 | 8.0 | 0.00 | 0.00 | 0.00 | 20 | 1014.9 |
| 20260506223007 | 82 | 360 | 1.0 | 9.0 | 0.00 | 0.00 | 0.00 | 20 | 1015.1 |
| 20260506221507 | 82 | 360 | 5.0 | 10.0 | 0.00 | 0.00 | 0.00 | 20 | 1015.3 |
| 20260506220005 | 82 | 360 | 1.0 | 6.0 | 0.00 | 0.00 | 0.00 | 20 | 1015.5 |
| 20260506214505 | 82 | 360 | 3.0 | 6.0 | 0.00 | 0.00 | 0.00 | 19 | 1015.7 |
| 20260506213004 | 83 | 360 | 3.0 | 11.0 | 0.00 | 0.00 | 0.00 | 19 | 1016.0 |
| 20260506211504 | 82 | 360 | 2.0 | 10.0 | 0.00 | 0.00 | 0.00 | 20 | 1016.2 |
| 20260506210002 | 82 | 360 | 3.0 | 9.0 | 0.00 | 0.00 | 0.00 | 20 | 1016.4 |
| 20260506204600 | 79 | 360 | 2.0 | 6.0 | 0.00 | 0.00 | 0.00 | 21 | 1016.6 |
| 20260506203058 | 80 | 360 | 2.0 | 6.0 | 0.00 | 0.00 | 0.00 | 22 | 1016.8 |
| 20260506201558 | 79 | 360 | 1.0 | 9.0 | 0.00 | 0.00 | 0.00 | 23 | 1016.9 |
| 20260506200057 | 77 | 360 | 5.0 | 11.0 | 0.00 | 0.00 | 0.00 | 25 | 1017.1 |
| 20260506194556 | 79 | 360 | 3.0 | 6.0 | 0.00 | 0.00 | 0.00 | 24 | 1017.2 |
| 20260506193057 | 79 | 360 | 4.0 | 8.0 | 0.00 | 0.00 | 0.00 | 25 | 1017.4 |
| 20260506191601 | 77 | 360 | 3.0 | 6.0 | 0.00 | 0.00 | 0.00 | 25 | 1017.6 |
| 20260506190053 | 77 | 360 | 3.0 | 6.0 | 0.00 | 0.00 | 0.00 | 26 | 1017.8 |
| 20260506184555 | 78 | 360 | 4.0 | 8.0 | 0.00 | 0.00 | 0.00 | 25 | 1018.1 |
| 20260506183055 | 76 | 360 | 1.0 | 6.0 | 0.00 | 0.00 | 0.00 | 25 | 1018.2 |
| 20260506181557 | 75 | 360 | 1.0 | 6.0 | 0.00 | 0.00 | 0.00 | 28 | 1018.3 |
| 20260506180042 | 75 | 360 | 2.0 | 8.0 | 0.00 | 0.00 | 0.00 | 29 | 1018.4 |
| 20260506174539 | 74 | 360 | 3.0 | 6.0 | 0.00 | 0.00 | 0.00 | 30 | 1018.4 |
| 20260506173102 | 74 | 360 | 1.0 | 5.0 | 0.00 | 0.00 | 0.00 | 29 | 1018.5 |
| 20260506171540 | 74 | 360 | 2.0 | 4.0 | 0.00 | 0.00 | 0.00 | 29 | 1018.5 |
| 20260506170038 | 74 | 360 | 2.0 | 5.0 | 0.00 | 0.00 | 0.00 | 30 | 1018.5 |
| 20260506164524 | 73 | 360 | 2.0 | 4.0 | 0.00 | 0.00 | 0.00 | 30 | 1018.5 |
| 20260506163027 | 71 | 360 | 2.0 | 4.0 | 0.00 | 0.00 | 0.00 | 33 | 1018.5 |
| 20260506161516 | 71 | 360 | 2.0 | 4.0 | 0.00 | 0.00 | 0.00 | 33 | 1018.5 |
| 20260506160012 | 70 | 360 | 0.0 | 4.0 | 0.00 | 0.00 | 0.00 | 33 | 1018.6 |
| 20260506154508 | 70 | 360 | 1.0 | 4.0 | 0.00 | 0.00 | 0.00 | 35 | 1018.5 |
| 20260506153004 | 69 | 360 | 2.0 | 5.0 | 0.00 | 0.00 | 0.00 | 37 | 1018.5 |
| 20260506151600 | 67 | 360 | 0.0 | 3.0 | 0.00 | 0.00 | 0.00 | 39 | 1018.4 |
| 20260506150056 | 67 | 360 | 0.0 | 2.0 | 0.00 | 0.00 | 0.00 | 41 | 1018.4 |
| 20260506144556 | 65 | 360 | 0.0 | 3.0 | 0.00 | 0.00 | 0.00 | 43 | 1018.3 |
| 20260506143050 | 63 | 360 | 0.0 | 1.0 | 0.00 | 0.00 | 0.00 | 48 | 1018.3 |
| 20260506141546 | 60 | 360 | 0.0 | 1.0 | 0.00 | 0.00 | 0.00 | 52 | 1018.2 |
| 20260506140042 | 58 | 360 | 0.0 | 3.0 | 0.00 | 0.00 | 0.00 | 56 | 1017.9 |
| 20260506134538 | 55 | 360 | 0.0 | 0.0 | 0.00 | 0.00 | 0.00 | 60 | 1017.8 |
| 20260506133045 | 55 | 360 | 1.0 | 2.0 | 0.00 | 0.00 | 0.00 | 59 | 1017.6 |
| 20260506131534 | 53 | 360 | 0.0 | 2.0 | 0.00 | 0.00 | 0.00 | 61 | 1017.4 |
| 20260506130032 | 54 | 360 | 1.0 | 3.0 | 0.00 | 0.00 | 0.00 | 59 | 1017.2 |
| 20260506124528 | 55 | 360 | 2.0 | 3.0 | 0.00 | 0.00 | 0.00 | 55 | 1017.1 |
| 20260506123026 | 57 | 360 | 1.0 | 3.0 | 0.00 | 0.00 | 0.00 | 50 | 1017.0 |
| 20260506121525 | 57 | 360 | 0.0 | 2.0 | 0.00 | 0.00 | 0.00 | 49 | 1016.7 |
| 20260506120024 | 57 | 360 | 0.0 | 3.0 | 0.00 | 0.00 | 0.00 | 48 | 1016.7 |
| 20260506114523 | 58 | 360 | 2.0 | 4.0 | 0.00 | 0.00 | 0.00 | 48 | 1016.6 |
| 20260506113021 | 58 | 360 | 1.0 | 4.0 | 0.00 | 0.00 | 0.00 | 47 | 1016.5 |
| 20260506111520 | 57 | 360 | 3.0 | 5.0 | 0.00 | 0.00 | 0.00 | 51 | 1016.4 |
| 20260506110019 | 55 | 360 | 3.0 | 5.0 | 0.00 | 0.00 | 0.00 | 56 | 1016.5 |
| 20260506104536 | 56 | 360 | 1.0 | 3.0 | 0.00 | 0.00 | 0.00 | 54 | 1016.4 |
| 20260506103015 | 60 | 360 | 2.0 | 6.0 | 0.00 | 0.00 | 0.00 | 44 | 1016.2 |
| 20260506101514 | 59 | 360 | 3.0 | 5.0 | 0.00 | 0.00 | 0.00 | 48 | 1016.0 |
| 20260506100013 | 57 | 360 | 3.0 | 5.0 | 0.00 | 0.00 | 0.00 | 50 | 1016.0 |
| 20260506094511 | 57 | 360 | 1.0 | 3.0 | 0.00 | 0.00 | 0.00 | 51 | 1015.9 |
| 20260506093013 | 55 | 360 | 3.0 | 5.0 | 0.00 | 0.00 | 0.00 | 55 | 1015.8 |
| 20260506091508 | 56 | 360 | 1.0 | 3.0 | 0.00 | 0.00 | 0.00 | 53 | 1015.6 |
| 20260506090006 | 57 | 360 | 1.0 | 4.0 | 0.00 | 0.00 | 0.00 | 52 | 1015.6 |
| 20260506084507 | 56 | 360 | 2.0 | 5.0 | 0.00 | 0.00 | 0.00 | 54 | 1015.5 |
| 20260506083003 | 57 | 360 | 3.0 | 8.0 | 0.00 | 0.00 | 0.00 | 51 | 1015.6 |
| 20260506081602 | 58 | 360 | 3.0 | 5.0 | 0.00 | 0.00 | 0.00 | 47 | 1015.6 |
| 20260506080114 | 59 | 360 | 2.0 | 4.0 | 0.00 | 0.00 | 0.00 | 47 | 1015.6 |
| 20260506073051 | 64 | 360 | 2.0 | 6.0 | 0.00 | 0.00 | 0.00 | 37 | 1015.5 |
| 20260506071554 | 64 | 360 | 3.0 | 5.0 | 0.00 | 0.00 | 0.00 | 37 | 1015.4 |
| 20260506061545 | 64 | 360 | 2.0 | 4.0 | 0.00 | 0.00 | 0.00 | 37 | 1015.0 |
| 20260506044538 | 66 | 360 | 2.0 | 5.0 | 0.00 | 0.00 | 0.00 | 35 | 1014.3 |